Wind_Speed
54 53 52 50 50 50 48 48 49 49 51 52 53 53 54 54 53 51 50 50 50 50 51 51 51 52 52 52 53 53 53 53 54 53 52 51 50 50 49 47 44 41
52 51 50 49 48 47 46 47 48 49 50 51 53 53 53 52 52 50 48 48 49 50 50 50 50 51 51 52 52 53 54 54 54 53 51 50 48 46 44 41 39 38
47 46 45 45 44 44 45 46 47 48 49 51 52 53 52 51 51 50 48 46 46 46 46 47 48 49 50 52 53 54 54 53 52 50 48 46 44 41 40 38 37 37
41 40 40 40 41 42 43 45 46 47 48 50 51 52 51 50 51 51 49 48 47 47 47 48 50 51 52 52 52 52 50 48 47 46 43 42 41 39 37 36 36 36
37 35 36 38 38 40 42 43 44 45 46 48 50 51 50 50 52 52 51 50 50 51 51 52 53 53 52 51 49 48 46 44 44 42 40 39 39 39 38 37 36 35
35 34 34 36 37 39 41 42 42 43 44 46 47 48 49 50 51 52 52 51 52 52 52 53 53 52 50 49 47 45 43 43 41 40 39 39 40 40 40 39 37 35
35 36 36 36 37 38 39 40 40 41 42 44 45 47 48 48 48 48 49 50 50 51 51 51 51 50 49 47 45 44 43 42 41 39 39 40 40 40 40 39 38 37
36 37 39 39 39 39 39 39 39 39 41 43 44 45 45 44 44 45 47 49 51 51 51 50 50 49 48 46 45 44 44 43 42 40 40 40 39 39 38 38 38 38
39 37 39 41 41 40 40 39 38 38 39 41 42 42 42 42 42 44 45 48 49 49 49 49 49 48 47 45 44 44 44 43 43 42 40 39 38 38 37 37 37 38
38 37 37 39 40 40 41 40 38 37 37 38 40 41 42 42 42 43 44 44 44 45 46 46 46 45 43 42 41 40 40 41 40 39 38 37 36 35 35 35 36 37
36 36 33 36 39 39 41 41 39 37 36 37 38 39 39 40 40 40 40 40 41 41 41 41 40 39 37 35 34 34 34 35 34 33 32 30 30 29 29 30 31 32
31 33 31 33 37 39 41 41 39 38 36 35 36 35 36 37 36 36 35 35 35 35 34 34 33 31 30 30 30 29 29 28 28 27 25 23 22 22 22 23 24 25
23 28 29 31 34 36 38 38 37 37 36 34 33 32 33 33 31 31 30 30 29 28 27 27 27 27 28 28 28 28 27 26 25 24 22 21 20 19 20 21 21 21
20 24 27 30 33 35 34 35 35 36 35 33 31 30 30 29 28 28 28 27 25 24 25 26 27 28 29 30 30 29 28 26 26 24 22 22 21 20 22 23 23 24
22 24 25 28 32 35 34 34 35 35 35 33 30 29 29 29 29 29 27 26 25 26 27 28 29 29 29 29 28 28 27 26 25 23 22 22 22 22 24 25 25 26
27 25 24 24 28 34 36 36 36 35 36 35 32 31 32 32 32 31 29 28 28 29 29 30 30 29 29 27 25 24 25 25 24 22 22 23 24 25 26 27 26 27
32 30 28 27 29 35 38 38 39 40 40 38 35 35 36 36 35 33 31 31 31 32 32 32 32 31 31 30 28 26 26 27 26 25 25 25 25 25 26 27 28 30
35 35 35 34 35 38 38 36 38 42 43 40 38 39 41 41 39 37 35 35 36 36 35 34 33 32 32 32 32 31 30 29 29 29 28 27 27 27 28 29 31 33
40 39 40 40 40 41 41 40 40 41 42 40 38 40 44 44 42 39 39 40 40 38 36 35 35 33 33 34 34 34 33 32 31 31 30 30 30 30 31 33 35 36
44 43 45 46 45 44 45 46 45 43 42 42 41 42 45 46 43 41 42 42 41 39 38 38 37 35 34 35 36 36 36 35 35 34 34 34 33 33 35 36 39 39
49 48 49 50 50 49 50 52 51 47 45 47 47 47 49 50 47 44 44 44 43 42 41 40 39 37 36 37 38 38 38 39 38 38 37 37 37 37 38 40 41 42
55 52 53 54 54 53 54 56 57 53 51 51 52 52 53 54 51 48 47 46 46 45 44 42 41 39 39 39 40 41 41 41 41 40 40 40 41 41 42 43 44 44
58 56 56 56 56 55 55 57 57 56 54 53 54 55 55 55 54 53 51 50 49 47 46 44 42 41 41 41 42 42 42 42 42 43 44 44 44 45 45 46 46 46
59 59 58 57 57 58 58 58 56 54 53 54 56 57 58 57 56 55 53 51 50 49 47 45 44 44 43 43 44 44 44 44 45 46 47 47 47 47 47 48 49 49
60 60 59 58 58 60 60 58 55 52 52 55 57 58 59 59 58 57 54 53 51 51 49 48 48 47 47 46 47 47 48 48 48 49 50 49 49 50 50 51 51 51
63 63 62 60 59 60 60 58 55 53 53 54 55 56 57 58 59 59 58 56 54 53 53 52 51 51 50 49 50 50 51 51 51 52 52 52 52 53 53 53 53 53
Wind_Direction
299 294 287 284 282 276 270 265 261 257 254 252 250 247 247 249 251 252 252 253 254 254 255 255 255 257 259 262 265 268 271 274 277 279 280 280 281 281 281 280 280 278
296 292 286 282 279 276 271 266 262 258 255 252 250 248 248 249 250 250 251 253 254 255 256 256 256 258 260 264 267 271 274 276 278 280 280 280 280 279 277 276 275 273
293 287 283 280 279 275 271 267 262 259 255 252 250 249 249 249 248 246 246 249 251 252 253 255 257 261 264 268 271 273 276 277 278 279 279 278 277 275 274 273 273 272
291 283 281 279 278 275 271 267 263 260 256 253 251 250 249 249 247 244 243 245 248 250 254 258 261 265 268 271 273 275 277 277 277 277 276 274 274 273 273 273 274 272
286 279 279 278 277 275 271 267 263 260 258 255 253 252 251 250 247 245 247 250 253 256 258 261 264 266 268 271 273 275 275 274 273 273 273 272 272 272 272 274 274 271
281 274 277 277 276 273 269 265 262 259 258 256 255 254 253 253 250 250 252 255 256 258 260 262 265 267 269 272 273 272 271 269 269 270 270 270 270 271 272 274 271 268
278 269 271 275 275 270 266 263 259 258 257 255 254 254 254 255 255 253 253 254 257 259 262 264 267 270 272 272 271 270 269 268 267 267 267 268 269 270 271 271 268 266
276 267 267 270 272 269 264 260 257 255 255 255 254 254 254 255 255 255 254 256 259 263 265 268 270 271 271 270 269 269 268 267 266 265 265 266 267 268 267 266 265 266
273 267 265 267 268 267 262 257 253 252 252 253 254 253 253 253 254 255 257 260 262 265 267 268 269 269 268 267 267 267 267 266 266 264 263 263 263 263 263 262 262 263
266 267 265 265 265 264 261 255 250 249 249 251 252 252 252 252 253 255 258 261 263 264 265 266 266 266 267 266 267 267 267 266 264 263 262 261 261 260 259 259 258 258
258 266 267 264 262 262 260 254 249 248 248 249 251 252 252 252 253 255 257 260 261 262 263 264 266 267 268 269 268 267 265 262 261 261 261 261 261 260 259 258 257 256
252 266 271 266 262 261 257 253 252 251 249 250 252 253 253 252 253 254 256 258 259 262 264 265 267 268 268 268 267 265 263 260 257 255 256 257 257 258 259 258 257 256
241 258 270 267 262 259 256 253 254 252 250 249 251 252 252 252 252 253 253 255 258 262 264 265 265 266 268 269 269 268 267 263 256 251 247 246 246 249 254 256 256 255
227 241 257 263 260 256 255 255 254 251 248 248 249 250 249 249 249 249 250 254 258 261 263 264 266 269 271 272 272 270 268 262 254 246 240 239 240 243 249 253 253 254
226 228 240 253 258 257 254 253 252 249 248 248 248 248 247 247 246 246 249 253 257 260 262 265 269 273 274 273 270 266 261 255 248 242 240 242 245 247 250 253 252 252
226 222 224 237 252 257 254 251 249 248 248 249 249 250 249 246 244 245 249 254 258 261 263 266 270 274 274 270 266 261 253 249 247 247 248 252 254 256 257 258 257 256
227 225 226 230 238 246 252 253 252 251 251 250 251 252 251 248 247 249 253 257 260 262 264 267 270 274 274 269 266 263 256 253 255 256 257 259 260 262 264 265 265 262
225 228 230 231 230 236 245 250 251 253 253 252 252 252 252 252 252 253 257 261 262 263 264 266 269 272 272 270 268 268 266 264 264 264 266 267 269 272 276 278 276 271
225 227 228 229 230 235 240 241 245 250 251 250 250 250 250 251 253 256 261 264 264 265 265 265 268 270 270 269 269 270 271 272 272 272 273 274 277 281 285 286 283 278
226 226 225 227 229 232 236 239 243 247 248 247 249 248 247 249 253 258 262 265 266 266 266 267 269 270 269 268 268 269 270 272 274 276 276 277 280 284 286 286 284 281
225 224 224 227 230 233 237 242 244 246 249 250 249 249 248 250 255 261 263 264 267 268 268 269 270 269 267 267 267 267 269 271 274 276 277 278 281 283 283 283 283 282
226 225 225 227 231 235 239 243 245 249 254 253 249 247 247 249 255 261 263 265 268 269 269 270 270 269 268 267 267 267 269 271 273 275 276 277 279 280 281 283 284 283
228 227 227 228 230 234 239 242 246 252 254 250 245 244 246 250 256 261 263 266 268 269 270 272 272 271 271 270 269 268 269 271 272 273 275 277 278 280 282 283 284 282
229 229 228 228 230 234 239 242 247 250 248 243 241 243 248 255 260 262 264 267 269 269 270 271 271 272 272 271 270 269 270 271 273 274 276 277 278 279 280 282 282 281
228 228 228 228 231 235 239 241 243 243 241 241 243 246 252 258 262 263 265 267 268 268 269 269 270 272 272 271 271 271 272 274 274 275 276 277 277 277 279 281 281 282
226 227 227 228 231 235 237 238 238 237 239 244 249 252 256 260 262 264 265 265 265 266 268 269 269 270 270 271 271 272 273 274 275 276 277 277 277 278 279 280 281 282
Height
10649 10648 10648 10648 10648 10648 10649 10649 10650 10651 10653 10654 10656 10658 10659 10661 10662 10663 10665 10666 10668 10671 10672 10674 10674 10673 10671 10671 10672 10672 10672 10671 10670 10671 10672 10671 10671 10670 10669 10669 10669 10669
10645 10644 10643 10643 10643 10644 10644 10645 10646 10647 10648 10650 10651 10653 10655 10657 10658 10660 10661 10662 10663 10665 10667 10667 10668 10668 10668 10668 10667 10667 10667 10667 10666 10667 10668 10667 10667 10666 10665 10665 10665 10665
10642 10641 10640 10639 10639 10639 10640 10640 10641 10643 10644 10646 10647 10649 10651 10653 10654 10656 10656 10657 10659 10660 10661 10662 10663 10663 10664 10664 10662 10662 10663 10663 10662 10663 10663 10662 10662 10661 10661 10661 10661 10661
10638 10638 10637 10636 10635 10636 10636 10636 10638 10639 10640 10641 10643 10645 10647 10649 10650 10651 10651 10653 10654 10656 10657 10657 10658 10659 10660 10659 10658 10657 10658 10658 10657 10657 10658 10657 10657 10656 10656 10657 10657 10658
10635 10636 10635 10634 10633 10633 10633 10634 10635 10635 10636 10637 10639 10641 10643 10645 10646 10647 10648 10649 10651 10652 10653 10653 10653 10654 10655 10655 10653 10652 10653 10653 10653 10652 10653 10653 10652 10652 10652 10652 10653 10654
10632 10633 10633 10632 10632 10631 10632 10632 10632 10633 10633 10634 10635 10637 10639 10640 10643 10644 10645 10646 10647 10648 10648 10649 10649 10649 10649 10649 10648 10648 10648 10649 10649 10649 10648 10648 10648 10648 10648 10648 10649 10650
10628 10628 10629 10630 10629 10629 10630 10631 10631 10631 10631 10631 10632 10633 10635 10637 10639 10641 10642 10642 10643 10643 10644 10644 10644 10644 10644 10643 10642 10642 10643 10643 10645 10645 10644 10643 10644 10644 10645 10645 10645 10646
10622 10624 10625 10625 10626 10626 10627 10629 10629 10629 10628 10628 10629 10630 10632 10634 10636 10637 10638 10639 10639 10639 10638 10638 10638 10638 10639 10639 10637 10637 10637 10638 10639 10641 10641 10640 10640 10640 10641 10641 10641 10641
10615 10618 10619 10620 10621 10622 10623 10625 10626 10625 10626 10626 10627 10628 10629 10631 10632 10634 10634 10634 10634 10633 10633 10633 10632 10633 10634 10635 10634 10633 10633 10633 10633 10635 10636 10636 10636 10636 10636 10637 10638 10638
10610 10612 10614 10614 10615 10617 10619 10621 10622 10622 10622 10623 10624 10625 10626 10628 10629 10630 10630 10630 10629 10628 10628 10628 10628 10628 10629 10630 10630 10630 10629 10629 10628 10628 10629 10631 10631 10631 10632 10633 10633 10634
10608 10607 10609 10609 10610 10612 10614 10616 10618 10618 10618 10619 10620 10621 10623 10624 10625 10626 10626 10625 10624 10624 10624 10624 10624 10624 10625 10625 10626 10626 10626 10626 10625 10624 10624 10625 10626 10626 10627 10628 10629 10630
10609 10606 10606 10607 10607 10608 10610 10612 10614 10614 10615 10615 10616 10617 10618 10619 10621 10622 10622 10621 10621 10621 10622 10622 10621 10621 10621 10621 10621 10622 10623 10623 10622 10621 10621 10621 10622 10623 10623 10624 10625 10626
10610 10608 10605 10604 10605 10605 10607 10609 10609 10610 10611 10611 10612 10614 10614 10615 10617 10617 10617 10617 10618 10619 10619 10619 10619 10618 10618 10617 10617 10618 10619 10619 10619 10619 10619 10619 10620 10621 10620 10620 10621 10622
10608 10608 10605 10603 10602 10602 10604 10605 10606 10607 10607 10608 10610 10611 10611 10612 10613 10613 10613 10614 10615 10616 10616 10616 10616 10615 10615 10614 10614 10614 10615 10616 10615 10616 10617 10616 10617 10619 10618 10618 10619 10619
10605 10605 10605 10603 10600 10600 10601 10601 10602 10603 10603 10604 10607 10607 10608 10609 10608 10608 10610 10612 10612 10612 10612 10612 10612 10612 10612 10611 10611 10611 10611 10612 10612 10613 10613 10613 10615 10616 10615 10615 10616 10616
10603 10603 10604 10604 10602 10597 10596 10597 10598 10599 10599 10601 10603 10604 10604 10604 10603 10604 10607 10608 10608 10608 10608 10608 10608 10609 10609 10608 10608 10608 10608 10608 10609 10610 10611 10611 10612 10612 10612 10612 10613 10613
10600 10600 10602 10604 10601 10595 10591 10593 10594 10593 10594 10598 10600 10601 10600 10599 10599 10601 10603 10604 10604 10604 10604 10604 10605 10605 10605 10605 10606 10606 10605 10606 10606 10607 10608 10608 10608 10609 10609 10609 10610 10610
10595 10596 10599 10600 10598 10592 10589 10590 10590 10588 10591 10595 10597 10597 10595 10594 10595 10598 10598 10598 10599 10600 10600 10601 10601 10601 10601 10601 10602 10602 10602 10602 10603 10603 10604 10605 10605 10605 10605 10606 10605 10605
10590 10592 10594 10594 10593 10590 10587 10586 10585 10584 10587 10591 10593 10592 10590 10590 10592 10593 10593 10593 10593 10595 10596 10597 10597 10597 10597 10597 10597 10598 10598 10598 10599 10599 10600 10600 10601 10601 10601 10601 10599 10598
10586 10588 10588 10588 10587 10585 10582 10580 10580 10581 10582 10585 10587 10587 10586 10586 10587 10588 10588 10587 10588 10590 10591 10592 10592 10592 10592 10593 10593 10593 10593 10593 10594 10595 10595 10595 10596 10597 10596 10594 10592 10592
10579 10581 10582 10582 10581 10579 10577 10575 10575 10576 10577 10579 10581 10581 10582 10581 10582 10583 10582 10581 10582 10584 10585 10586 10587 10587 10587 10588 10588 10588 10588 10588 10589 10589 10590 10590 10591 10590 10589 10588 10586 10586
10571 10574 10575 10576 10575 10574 10572 10570 10569 10572 10573 10573 10574 10575 10575 10575 10576 10577 10577 10576 10577 10578 10579 10580 10581 10581 10581 10582 10582 10583 10583 10583 10583 10583 10584 10584 10584 10583 10583 10582 10581 10580
10566 10567 10568 10569 10569 10568 10566 10564 10565 10567 10568 10567 10568 10568 10568 10569 10570 10571 10571 10571 10571 10572 10573 10573 10574 10574 10575 10575 10576 10576 10576 10577 10577 10577 10577 10578 10577 10577 10577 10576 10575 10573
10559 10560 10561 10562 10563 10561 10559 10559 10561 10562 10561 10561 10562 10562 10562 10562 10563 10565 10566 10566 10566 10566 10566 10567 10567 10568 10568 10569 10569 10569 10569 10570 10571 10570 10571 10571 10571 10570 10570 10569 10568 10566
10550 10552 10554 10556 10556 10554 10553 10553 10555 10555 10555 10555 10556 10556 10556 10555 10556 10557 10559 10560 10560 10559 10560 10561 10561 10562 10562 10562 10562 10562 10562 10563 10564 10564 10564 10564 10564 10563 10563 10562 10561 10559
10542 10544 10546 10548 10548 10547 10547 10548 10549 10550 10550 10550 10550 10550 10550 10549 10548 10549 10551 10553 10554 10554 10554 10555 10555 10555 10555 10555 10555 10555 10555 10555 10556 10557 10557 10557 10557 10556 10555 10554 10553 10552